Weather History for Olean, NY

Change the Weather History Date:

Friday, November 30, 2012

  Actual Average (KBFD) Record (KBFD)
Temperature  
Mean Temperature 29 °F 31 °F  
Max Temperature 32 °F 38 °F 64 °F (1962)
Min Temperature 26 °F 24 °F -2 °F (1976)
Degree Days  
Heating Degree Days 36 29  
Month to date heating degree days 703  
Since 1 July heating degree days 1835  
Cooling Degree Days 0 0  
Month to date cooling degree days 0  
Year to date cooling degree days 193  
Moisture  
Dew Point 25 °F    
Average Humidity 85    
Maximum Humidity 100    
Minimum Humidity 60    
Precipitation  
Precipitation 0.00 in 0.13 in 2.27 in (2010)
Month to date precipitation 3.76  
Year to date precipitation 41.06  
Sea Level Pressure  
Sea Level Pressure 30.24 in    
Wind  
Wind Speed 5 mph ()    
Max Wind Speed 9 mph    
Max Gust Speed -    
Visibility 8.4 miles    
Events Snow    
T = Trace of Precipitation, MM = Missing Value Source: Averaged Metar Reports

Daily Weather History Graph

Daily Weather History Graph

Search for Another Location

Airport:

Trip Planner

Search our weather history database for the weather conditions in past years. The results will help you decide how hot, cold, wet, or windy it might be!

Date:

Astronomy

Nov. 30, 2012 Rise Set
Actual Time 7:22 AM EST 4:42 PM EST
Civil Twilight 6:50 AM EST 5:13 PM EST
Nautical Twilight 6:16 AM EST 5:48 PM EST
Astronomical Twilight 5:42 AM EST 6:22 PM EST
Moon 6:35 PM EST (11/30) 8:52 AM EST (11/30)
Length of Visible Light 10h 22m
Length of Day
9h 20m
Waning Gibbous, 96% of the Moon is Illuminated
Nov 30
Waning Gibbous
Dec 6
Last Quarter
Dec 13
New
Dec 20
First Quarter
Dec 28
Full

Hourly Weather History & Observations

Time (EST) Temp. Windchill Dew Point Humidity Pressure Visibility Wind Dir Wind Speed Gust Speed Precip Events Conditions
12:15 AM 32.0 °F 28.7 °F 19.4 °F 60% 30.23 in 10.0 mi SW 3.5 mph - N/A   Scattered Clouds
12:35 AM 32.0 °F 28.7 °F 19.4 °F 60% 30.22 in 10.0 mi SSW 3.5 mph - N/A   Clear
12:55 AM 30.2 °F 26.7 °F 19.4 °F 64% 30.22 in 10.0 mi South 3.5 mph - N/A   Clear
1:15 AM 30.2 °F 26.7 °F 19.4 °F 64% 30.22 in 10.0 mi SSW 3.5 mph - N/A   Clear
1:35 AM 30.2 °F 25.4 °F 19.4 °F 64% 30.22 in 10.0 mi South 4.6 mph - N/A   Mostly Cloudy
1:55 AM 30.2 °F 25.4 °F 19.4 °F 64% 30.22 in 10.0 mi South 4.6 mph - N/A   Overcast
2:15 AM 30.2 °F 26.7 °F 19.4 °F 64% 30.22 in 10.0 mi South 3.5 mph - N/A   Overcast
2:35 AM 30.2 °F 26.7 °F 19.4 °F 64% 30.22 in 10.0 mi SSW 3.5 mph - N/A   Overcast
2:55 AM 32.0 °F 27.5 °F 19.4 °F 60% 30.22 in 10.0 mi SSW 4.6 mph - N/A   Overcast
3:15 AM 30.2 °F - 19.4 °F 64% 30.22 in 10.0 mi Calm Calm - N/A   Mostly Cloudy
3:35 AM 30.2 °F 26.7 °F 19.4 °F 64% 30.22 in 10.0 mi SW 3.5 mph - N/A   Scattered Clouds
3:55 AM 30.2 °F - 19.4 °F 64% 30.22 in 10.0 mi Calm Calm - N/A   Clear
4:15 AM 30.2 °F 25.4 °F 19.4 °F 64% 30.22 in 10.0 mi SSW 4.6 mph - N/A   Clear
4:35 AM 30.2 °F 26.7 °F 19.4 °F 64% 30.23 in 10.0 mi SSW 3.5 mph - N/A   Mostly Cloudy
4:55 AM 30.2 °F - 19.4 °F 64% 30.23 in 10.0 mi Calm Calm - N/A   Scattered Clouds
5:15 AM 30.2 °F - 19.4 °F 64% 30.23 in 10.0 mi Calm Calm - N/A   Mostly Cloudy
5:35 AM 28.4 °F 22.2 °F 19.4 °F 69% 30.24 in 10.0 mi East 5.8 mph - N/A   Mostly Cloudy
5:55 AM 28.4 °F 23.3 °F 21.2 °F 74% 30.24 in 10.0 mi East 4.6 mph - N/A   Mostly Cloudy
6:15 AM 30.2 °F 23.4 °F 21.2 °F 69% 30.25 in 10.0 mi East 6.9 mph - N/A   Overcast
6:35 AM 28.4 °F 22.2 °F 21.2 °F 74% 30.25 in 10.0 mi East 5.8 mph - N/A   Overcast
6:55 AM 28.4 °F 22.2 °F 23.0 °F 80% 30.25 in 10.0 mi East 5.8 mph - N/A   Overcast
7:15 AM 28.4 °F 21.2 °F 24.8 °F 86% 30.26 in 10.0 mi East 6.9 mph - N/A   Overcast
7:35 AM 28.4 °F 21.2 °F 26.6 °F 93% 30.26 in 10.0 mi East 6.9 mph - N/A   Overcast
7:55 AM 28.4 °F 21.2 °F 26.6 °F 93% 30.26 in 10.0 mi East 6.9 mph - N/A   Overcast
8:15 AM 28.4 °F 21.2 °F 26.6 °F 93% 30.27 in 7.0 mi East 6.9 mph - N/A   Overcast
8:35 AM 28.4 °F 21.2 °F 26.6 °F 93% 30.26 in 4.0 mi East 6.9 mph - N/A   Overcast
8:55 AM 28.4 °F 21.2 °F 28.4 °F 100% 30.26 in 4.0 mi East 6.9 mph - N/A   Overcast
9:15 AM 28.4 °F 21.2 °F 28.4 °F 100% 30.27 in 4.0 mi East 6.9 mph - N/A Snow Light Snow
9:35 AM 28.4 °F 21.2 °F 28.4 °F 100% 30.28 in 2.0 mi East 6.9 mph - N/A Snow Light Snow
9:55 AM 28.4 °F 20.4 °F 28.4 °F 100% 30.28 in 2.5 mi East 8.1 mph - N/A Snow Light Snow
10:15 AM 28.4 °F 23.3 °F 28.4 °F 100% 30.28 in 3.0 mi East 4.6 mph - N/A Snow Light Snow
10:35 AM 28.4 °F 20.4 °F 28.4 °F 100% 30.27 in 2.0 mi East 8.1 mph - N/A Snow Light Snow
10:55 AM 30.2 °F 22.6 °F 28.4 °F 93% 30.27 in 5.0 mi East 8.1 mph - N/A   Overcast
11:15 AM 30.2 °F 24.3 °F 28.4 °F 93% 30.27 in 7.0 mi East 5.8 mph - N/A   Overcast
11:35 AM 30.2 °F 25.4 °F 28.4 °F 93% 30.27 in 10.0 mi ESE 4.6 mph - N/A   Overcast
11:55 AM 30.2 °F 25.4 °F 28.4 °F 93% 30.25 in 10.0 mi East 4.6 mph - N/A   Overcast
12:15 PM 30.2 °F 24.3 °F 28.4 °F 93% 30.25 in 10.0 mi East 5.8 mph - N/A   Overcast
12:35 PM 30.2 °F 23.4 °F 28.4 °F 93% 30.24 in 10.0 mi East 6.9 mph - N/A   Overcast
12:55 PM 30.2 °F 23.4 °F 28.4 °F 93% 30.24 in 10.0 mi East 6.9 mph - N/A   Overcast
1:15 PM 32.0 °F 25.6 °F 28.4 °F 87% 30.23 in 10.0 mi East 6.9 mph - N/A   Overcast
1:35 PM 32.0 °F 25.6 °F 28.4 °F 87% 30.22 in 10.0 mi East 6.9 mph - N/A   Overcast
1:55 PM 30.2 °F 24.3 °F 28.4 °F 93% 30.23 in 10.0 mi East 5.8 mph - N/A   Overcast
2:15 PM 32.0 °F 24.8 °F 28.4 °F 87% 30.22 in 10.0 mi East 8.1 mph - N/A   Overcast
2:35 PM 32.0 °F 25.6 °F 28.4 °F 87% 30.23 in 10.0 mi East 6.9 mph - N/A   Overcast
2:55 PM 32.0 °F 24.8 °F 28.4 °F 87% 30.22 in 10.0 mi East 8.1 mph - N/A   Overcast
3:15 PM 30.2 °F 22.6 °F 28.4 °F 93% 30.21 in 10.0 mi East 8.1 mph - N/A   Overcast
3:35 PM 30.2 °F 21.9 °F 28.4 °F 93% 30.21 in 10.0 mi East 9.2 mph - N/A   Overcast
3:55 PM 32.0 °F 24.8 °F 28.4 °F 87% 30.20 in 7.0 mi East 8.1 mph - N/A   Overcast
4:15 PM 32.0 °F 24.8 °F 28.4 °F 87% 30.20 in 10.0 mi East 8.1 mph - N/A   Overcast
4:35 PM 30.2 °F 22.6 °F 28.4 °F 93% 30.20 in 10.0 mi East 8.1 mph - N/A   Overcast
4:55 PM 30.2 °F 21.9 °F 28.4 °F 93% 30.20 in 10.0 mi East 9.2 mph - N/A   Overcast
5:15 PM 30.2 °F 23.4 °F 28.4 °F 93% 30.21 in 10.0 mi East 6.9 mph - N/A   Mostly Cloudy
5:35 PM 30.2 °F 22.6 °F 28.4 °F 93% 30.21 in 10.0 mi East 8.1 mph - N/A   Mostly Cloudy
5:55 PM 30.2 °F 22.6 °F 28.4 °F 93% 30.21 in 10.0 mi East 8.1 mph - N/A   Overcast
6:15 PM 30.2 °F 22.6 °F 28.4 °F 93% 30.21 in 10.0 mi East 8.1 mph - N/A   Overcast
6:35 PM 30.2 °F 23.4 °F 28.4 °F 93% 30.23 in 10.0 mi East 6.9 mph - N/A   Mostly Cloudy
7:15 PM 28.4 °F 19.7 °F 26.6 °F 93% 30.23 in 10.0 mi East 9.2 mph - N/A   Mostly Cloudy
7:35 PM 28.4 °F 19.7 °F 26.6 °F 93% 30.23 in 7.0 mi East 9.2 mph - N/A   Overcast
7:55 PM 28.4 °F 19.7 °F 26.6 °F 93% 30.24 in 7.0 mi East 9.2 mph - N/A   Scattered Clouds
8:15 PM 28.4 °F 20.4 °F 26.6 °F 93% 30.23 in 7.0 mi East 8.1 mph - N/A   Mostly Cloudy
8:35 PM 28.4 °F 20.4 °F 26.6 °F 93% 30.24 in 7.0 mi East 8.1 mph - N/A   Mostly Cloudy
8:55 PM 26.6 °F 18.2 °F 26.6 °F 100% 30.24 in 5.0 mi East 8.1 mph - N/A   Mostly Cloudy
9:15 PM 26.6 °F 18.2 °F 26.6 °F 100% 30.25 in 5.0 mi East 8.1 mph - N/A   Overcast
9:35 PM 26.6 °F 18.2 °F 26.6 °F 100% 30.25 in 5.0 mi East 8.1 mph - N/A   Overcast
10:15 PM 26.6 °F 18.2 °F 26.6 °F 100% 30.25 in 5.0 mi East 8.1 mph - N/A   Overcast
10:35 PM 26.6 °F 18.2 °F 26.6 °F 100% 30.25 in 4.0 mi East 8.1 mph - N/A   Overcast
11:15 PM 26.6 °F 18.2 °F 26.6 °F 100% 30.24 in 4.0 mi East 8.1 mph - N/A   Scattered Clouds
11:35 PM 26.6 °F 19.1 °F 26.6 °F 100% 30.24 in 5.0 mi East 6.9 mph - N/A   Scattered Clouds